Location: Jackson
(42.2460°N, 84.4010°W)
Time: 03:48:01
(UTC-05:00)

A-11 Canister half - Visible Passes

Search period start: 15 February 2026 00:00
Search period end: 25 February 2026 00:00
Orbit: 1512 x 1687 km, 47.2° (Epoch: 15 February)

Date Brightness Start Highest point End Pass type
(mag) Time Alt. Az. Time Alt. Az. Time Alt. Az.
15 Feb 10.0 03:19:52 36° ESE 03:19:52 36° ESE 03:24:40 10° ESE visible
15 Feb 9.2 05:18:05 42° WSW 05:19:37 45° SW 05:28:17 10° SSE visible
15 Feb 9.7 20:27:41 10° SSW 20:35:34 34° SE 20:35:34 34° SE visible
15 Feb 10.5 22:30:30 10° WSW 22:33:49 24° WSW 22:33:49 24° WSW visible
16 Feb 10.5 02:58:33 24° ESE 02:58:33 24° ESE 03:01:37 10° ESE visible
16 Feb 9.2 04:56:47 48° SW 04:56:47 48° SW 05:05:26 10° SSE visible
16 Feb 10.5 06:57:05 10° WSW 06:59:35 11° WSW 07:02:05 10° SW visible
16 Feb 9.7 20:04:52 10° S 20:13:27 32° SE 20:14:34 32° ESE visible
16 Feb 10.0 22:07:25 10° SW 22:12:49 37° SW 22:12:49 37° SW visible
17 Feb 10.9 02:37:20 15° ESE 02:37:20 15° ESE 02:38:34 10° ESE visible
17 Feb 9.4 04:35:35 45° S 04:35:35 45° S 04:42:34 10° SSE visible
17 Feb 10.4 06:33:48 11° WSW 06:36:41 13° WSW 06:40:18 10° SW visible
17 Feb 9.8 19:42:05 10° S 19:50:28 30° SE 19:53:32 26° ESE visible
17 Feb 9.4 21:44:21 10° SW 21:51:47 54° SW 21:51:47 54° SW visible
17 Feb 11.2 23:49:55 10° W 23:50:01 10° W 23:50:01 10° W visible
18 Feb 9.8 04:14:26 36° SSE 04:14:26 36° SSE 04:19:41 10° SSE visible
18 Feb 10.3 06:12:40 14° WSW 06:13:46 14° WSW 06:18:12 10° SSW visible
18 Feb 9.9 19:19:20 10° S 19:27:29 28° SE 19:32:27 19° E visible
18 Feb 9.0 21:21:19 10° SW 21:30:41 73° S 21:30:41 73° S visible
18 Feb 10.9 23:26:47 10° W 23:28:56 18° W 23:28:56 18° W visible
19 Feb 10.2 03:53:21 25° SSE 03:53:21 25° SSE 03:56:46 10° SE visible
19 Feb 10.3 05:51:36 16° SW 05:51:36 16° SW 05:55:56 10° SSW visible
19 Feb 10.0 18:56:37 10° S 19:04:29 26° SE 19:11:17 13° E visible
19 Feb 8.9 20:58:16 10° SW 21:08:24 73° SSE 21:09:31 68° ESE visible
19 Feb 10.4 23:03:38 10° W 23:07:45 28° W 23:07:45 28° W visible
20 Feb 10.7 03:32:19 16° SE 03:32:19 16° SE 03:33:51 10° SE visible
20 Feb 10.4 05:30:35 16° SW 05:30:35 16° SW 05:33:33 10° SSW visible
20 Feb 10.1 18:33:57 10° S 18:41:31 25° SE 18:49:04 10° E visible
20 Feb 9.0 20:35:14 10° SW 20:45:20 70° SSE 20:48:16 50° E visible
20 Feb 9.9 22:40:28 10° W 22:46:30 41° W 22:46:30 41° W visible
21 Feb 10.5 05:09:35 13° SSW 05:09:35 13° SSW 05:11:06 10° SSW visible
21 Feb 9.1 20:12:13 10° SW 20:22:16 67° SE 20:26:57 36° ENE visible
21 Feb 9.5 22:17:19 10° W 22:25:10 56° WNW 22:25:10 56° WNW visible
22 Feb 11.3 00:23:22 10° WNW 00:23:24 10° WNW 00:23:24 10° WNW visible
22 Feb 9.2 19:49:13 10° SW 19:59:13 64° SE 20:05:33 26° ENE visible
22 Feb 9.2 21:54:10 10° W 22:03:46 71° NW 22:03:46 71° NW visible
23 Feb 10.9 00:00:14 10° WNW 00:02:00 17° WNW 00:02:00 17° WNW visible
23 Feb 9.2 19:26:14 10° SW 19:36:10 61° SE 19:44:06 18° ENE visible
23 Feb 9.1 21:31:03 10° W 21:41:16 74° NNW 21:42:18 69° NNE visible
23 Feb 10.6 23:37:05 10° WNW 23:40:31 24° WNW 23:40:31 24° WNW visible
24 Feb 9.3 19:03:15 10° SW 19:13:07 58° SE 19:22:34 11° ENE visible
24 Feb 9.1 21:07:54 10° WSW 21:18:09 76° NNW 21:20:46 55° NE visible
24 Feb 10.2 23:13:57 10° WNW 23:18:59 34° WNW 23:18:59 34° WNW visible
